This is the latest recevied weather packets stored in our database for station/object AB8DT-10. If no packets are shown the sender has not sent any weather packets the latest 10 day(s).
| Time | Temp. | Humidity | Pressure | Rain* | Wind** | Luminosity | Snow |
|---|---|---|---|---|---|---|---|
| 1777917712 | 22.78° C | 20% | 0 hPa | 0 mm | - | - | - |
| 1777917412 | 22.22° C | 20% | 0 hPa | 0 mm | - | - | - |
| 1777917112 | 21.67° C | 20% | 0 hPa | 0 mm | - | - | - |
| 1777916812 | 21.67° C | 20% | 0 hPa | 0 mm | - | - | - |
| 1777916512 | 21.67° C | 20% | 0 hPa | 0 mm | - | - | - |
| 1777916212 | 22.22° C | 19% | 0 hPa | 0 mm | - | - | - |
| 1777915912 | 22.22° C | 23% | 0 hPa | 0 mm | - | - | - |
| 1777915612 | 22.22° C | 22% | 0 hPa | 0 mm | - | - | - |
| 1777915312 | 21.67° C | 22% | 0 hPa | 0 mm | - | - | - |
| 1777915012 | 21.67° C | 21% | 0 hPa | 0 mm | - | - | - |
| 1777914712 | 21.67° C | 26% | 0 hPa | 0 mm | - | - | - |
| 1777914112 | 21.67° C | 26% | 0 hPa | 0 mm | - | - | - |
| 1777913812 | 21.11° C | 25% | 0 hPa | 0 mm | - | - | - |
| 1777913512 | 21.11° C | 25% | 0 hPa | 0 mm | - | - | - |
| 1777913212 | 21.11° C | 28% | 0 hPa | 0 mm | - | - | - |
| 1777912912 | 21.11° C | 27% | 0 hPa | 0 mm | - | - | - |
| 1777912612 | 21.11° C | 29% | 0 hPa | 0 mm | - | - | - |
| 1777912312 | 21.11° C | 29% | 0 hPa | 0 mm | - | - | - |
| 1777912012 | 20.56° C | 31% | 0 hPa | 0 mm | - | - | - |
| 1777911712 | 20.56° C | 31% | 0 hPa | 0 mm | - | - | - |
| 1777911412 | 20.56° C | 33% | 0 hPa | 0 mm | - | - | - |
| 1777911112 | 20.56° C | 35% | 0 hPa | 0 mm | - | - | - |
| 1777910812 | 21.11° C | 35% | 0 hPa | 0 mm | - | - | - |
| 1777910512 | 20.56° C | 35% | 0 hPa | 0 mm | - | - | - |
| 1777910212 | 20.56° C | 37% | 0 hPa | 0 mm | - | - | - |
* Rain latest hour (hover to see other rain measurements)
** Current wind speed in m/s (hover to see current wind gust speed)